This is the latest recevied weather packets stored in our database for station/object K0VSC-1. If no packets are shown the sender has not sent any weather packets the latest 10 day(s).
| Time | Temp. | Humidity | Pressure | Rain* | Wind** | Luminosity | Snow |
|---|---|---|---|---|---|---|---|
| 1777821491 | 14.44° C | 47% | 1007.7 hPa | 0 mm | - | 635 W/m² | - |
| 1777821191 | 13.89° C | 49% | 1007.6 hPa | 0 mm | - | 624 W/m² | - |
| 1777820891 | 13.89° C | 48% | 1007.7 hPa | 0 mm | - | 601 W/m² | - |
| 1777820591 | 13.89° C | 49% | 1007.6 hPa | 0 mm | - | 599 W/m² | - |
| 1777820291 | 13.89° C | 51% | 1007.5 hPa | 0 mm | - | 580 W/m² | - |
| 1777819991 | 13.89° C | 50% | 1007.6 hPa | 0 mm | - | 575 W/m² | - |
| 1777819691 | 13.89° C | 50% | 1007.5 hPa | 0 mm | - | 563 W/m² | - |
| 1777819391 | 13.89° C | 51% | 1007.6 hPa | 0 mm | - | 548 W/m² | - |
| 1777819091 | 13.89° C | 52% | 1007.6 hPa | 0 mm | - | 536 W/m² | - |
| 1777818791 | 13.89° C | 51% | 1007.5 hPa | 0 mm | - | 522 W/m² | - |
| 1777818491 | 13.33° C | 53% | 1007.5 hPa | 0 mm | - | 510 W/m² | - |
| 1777818191 | 13.33° C | 53% | 1007.6 hPa | 0 mm | - | 496 W/m² | - |
| 1777817891 | 13.33° C | 53% | 1007.6 hPa | 0 mm | - | 482 W/m² | - |
| 1777817591 | 12.78° C | 53% | 1007.5 hPa | 0 mm | - | 469 W/m² | - |
| 1777817291 | 12.78° C | 52% | 1007.5 hPa | 0 mm | - | 457 W/m² | - |
| 1777816991 | 12.78° C | 54% | 1007.4 hPa | 0 mm | - | 439 W/m² | - |
| 1777816691 | 12.78° C | 54% | 1007.5 hPa | 0 mm | - | 427 W/m² | - |
| 1777816391 | 12.22° C | 55% | 1007.5 hPa | 0 mm | - | 413 W/m² | - |
| 1777816091 | 12.22° C | 55% | 1007.4 hPa | 0 mm | - | 399 W/m² | - |
| 1777815791 | 11.67° C | 57% | 1007.4 hPa | 0 mm | - | 380 W/m² | - |
| 1777815491 | 11.67° C | 58% | 1007.4 hPa | 0 mm | - | 360 W/m² | - |
| 1777815191 | 11.67° C | 59% | 1007.4 hPa | 0 mm | - | 332 W/m² | - |
| 1777814891 | 11.67° C | 60% | 1007.2 hPa | 0 mm | - | 308 W/m² | - |
| 1777814591 | 11.11° C | 60% | 1007.3 hPa | 0 mm | - | 265 W/m² | - |
| 1777814291 | 11.11° C | 61% | 1007.2 hPa | 0 mm | - | 220 W/m² | - |
* Rain latest hour (hover to see other rain measurements)
** Current wind speed in m/s (hover to see current wind gust speed)